钟子号卫星1组 02星 (NINGXIA-1 2)

导读 | 豆包AI

NINGXIA-1 2由中国于2019年11月13日08:00发射,是宁夏一号卫星星座的组成部分。该卫星主要面向遥感监测、智慧城市建设等领域提供服务,助力区域自然资源勘查、生态环境监测与防灾减灾等工作,推动我国商业航天在地方应用领域的发展。

基本信息
目录编号:
44780
目录名称:
NINGXIA-1 2
国际标识:
2019-076B
轨道中心:
EARTH
卫星名称:
钟子号卫星1组 02星
卫星全名:
钟子号卫星1组 02星 (NINGXIA-1 2)
卫星状态:
在轨 (已飞行2385 天)
发射日期:
2019-11-13 UTC
国别 :
中国 (CN)
星等 :
--
轨道信息
数据来源 国际轨道数据
星历时间: 2026-05-24T09:55:47+0800
23小时前
查看轨道信息
半长轴: 7264.834km
偏心率: 0.0006395
轨道倾角: 45.010°
近地点辐角 31.556°
升交点赤经 287.914°
平近点角 328.566°
近地点: 882.051km
远地点: 891.343km
周期: 102.707分钟
每日圈数: 14.020526
详细信息
平衡模式:
三轴稳定
覆盖范围:
全球
运营商:
夏威夷科学技术博物馆
运营商所在国:
美国
制造商(研发单位):
中国东方红卫星股份有限公司
制造商所在国:
中国
使用方式:
暂无
卫星简介
钟子号卫星星座(Zhongzi)是由宁夏金硅信息技术有限公司自主投资建设的商业航天项目,卫星由五院所属航天东方红卫星有限公司抓总研制,主要应用于遥感探测等领域。该卫星仍在工作。
2D轨道图
3D轨道图
轨道高度分析图
轨道倾角分析图
轨道综合分析图
查看轨道综合分析图